This is the latest recevied weather packets stored in our database for station/object SV9TNF-1. If no packets are shown the sender has not sent any weather packets the latest 10 day(s).
| Time | Temp. | Humidity | Pressure | Rain* | Wind** | Luminosity | Snow |
|---|---|---|---|---|---|---|---|
| 1777737053 | 13.33° C | 57% | 1003.7 hPa | 0 mm | 1.79 m/s, 150° | - | - |
| 1777736752 | 13.33° C | 58% | 1003.7 hPa | 0 mm | 3.58 m/s, 197° | - | - |
| 1777736453 | 13.33° C | 57% | 1003.7 hPa | 0 mm | 0.89 m/s, 154° | - | - |
| 1777736152 | 13.33° C | 56% | 1003.7 hPa | 0 mm | 0 m/s | - | - |
| 1777735852 | 13.33° C | 58% | 1003.7 hPa | 0 mm | 0.45 m/s, 134° | - | - |
| 1777735552 | 13.33° C | 61% | 1003.7 hPa | 0 mm | 1.34 m/s, 131° | - | - |
| 1777735252 | 13.89° C | 60% | 1003.7 hPa | 0 mm | 1.34 m/s, 130° | - | - |
| 1777734952 | 13.89° C | 60% | 1003.7 hPa | 0 mm | 0.89 m/s, 125° | - | - |
| 1777734652 | 13.89° C | 60% | 1004.1 hPa | 0 mm | 1.79 m/s, 128° | - | - |
| 1777734352 | 14.44° C | 60% | 1004.1 hPa | 0 mm | 0.45 m/s, 127° | - | - |
| 1777734051 | 14.44° C | 59% | 1004.1 hPa | 0 mm | 0.45 m/s, 135° | - | - |
| 1777733752 | 14.44° C | 58% | 1004.1 hPa | 0 mm | 0.45 m/s, 125° | - | - |
| 1777733451 | 14.44° C | 57% | 1004.1 hPa | 0 mm | 0.45 m/s, 124° | - | - |
| 1777733151 | 14.44° C | 57% | 1004.1 hPa | 0 mm | 1.34 m/s, 130° | - | - |
| 1777732851 | 14.44° C | 58% | 1004.1 hPa | 0 mm | 3.58 m/s, 128° | - | - |
| 1777732551 | 14.44° C | 58% | 1004.1 hPa | 0 mm | 0.45 m/s, 132° | - | - |
| 1777732251 | 14.44° C | 58% | 1004.1 hPa | 0 mm | 2.68 m/s, 105° | - | - |
| 1777731951 | 14.44° C | 58% | 1004.1 hPa | 0 mm | 1.34 m/s, 138° | - | - |
| 1777731651 | 14.44° C | 58% | 1004.1 hPa | 0 mm | 2.68 m/s, 131° | - | - |
| 1777731351 | 14.44° C | 57% | 1004.1 hPa | 0 mm | 0.89 m/s, 132° | - | - |
| 1777731051 | 14.44° C | 57% | 1004.1 hPa | 0 mm | 0.45 m/s, 131° | - | - |
| 1777730751 | 14.44° C | 58% | 1004.1 hPa | 0 mm | 1.79 m/s, 120° | - | - |
| 1777730450 | 14.44° C | 58% | 1004.1 hPa | 0 mm | 0 m/s | - | - |
| 1777730150 | 14.44° C | 58% | 1004.1 hPa | 0 mm | 1.79 m/s, 160° | - | - |
| 1777729850 | 14.44° C | 58% | 1004.1 hPa | 0 mm | 1.34 m/s, 144° | - | - |
* Rain latest hour (hover to see other rain measurements)
** Current wind speed in m/s (hover to see current wind gust speed)